30.06.2024;16:00;78
30.06.2024;15:00;81
30.06.2024;14:00;84
30.06.2024;13:00;88
30.06.2024;12:00;83
30.06.2024;11:00;80
30.06.2024;10:00;76
30.06.2024;09:00;73
30.06.2024;08:00;72
30.06.2024;07:00;76
30.06.2024;06:00;80
30.06.2024;05:00;67
30.06.2024;04:00;55
30.06.2024;03:00;36
30.06.2024;02:00;45
30.06.2024;01:00;44
30.06.2024;00:00;59
29.06.2024;23:00;64
29.06.2024;22:00;63
29.06.2024;21:00;71
29.06.2024;20:00;80
29.06.2024;19:00;87
29.06.2024;18:00;84
29.06.2024;17:00;87
29.06.2024;16:00;92
29.06.2024;15:00;94
29.06.2024;14:00;94
29.06.2024;13:00;86
29.06.2024;12:00;82
29.06.2024;11:00;73
29.06.2024;10:00;56
29.06.2024;09:00;50
29.06.2024;08:00;36
29.06.2024;07:00;24
29.06.2024;06:00;16
29.06.2024;05:00;17
29.06.2024;04:00;16
29.06.2024;03:00;19
29.06.2024;02:00;14
29.06.2024;01:00;23
29.06.2024;00:00;50
28.06.2024;23:00;58
28.06.2024;22:00;78
28.06.2024;21:00;84
28.06.2024;20:00;89
28.06.2024;19:00;91
28.06.2024;18:00;93
28.06.2024;17:00;89
